Home > Weather > Glendale > Past weeks

Flag for USA Past Weather in Glendale, California, USA — Yesterday and Last 2 Weeks

Now
74 °F

Sunny.


Feels Like: 77 °F
Forecast: 59 / 81 °F
Wind: 7 mph from Southeast

Location: Bob Hope Airport

Current Time: Aug 27, 2016 at 1:54:17 PM

Latest Report: Aug 27, 2016 at 12:53 PM


Visibility: 9 mi

Pressure: 29.95 "Hg

Humidity: 56%

Dew Point: 57 °F

Location of GlendaleLocation

Past Weather in Glendale — Graph

°F

Glendale Temperature Yesterday

Maximum temperature yesterday: 78 °F (at 1:53 PM)
Minimum temperature yesterday: 62 °F (at 11:53 PM)
Average temperature yesterday: 68 °F

High & Low Weather Summary for the Past Weeks

 TemperatureHumidityPressure
High100 °F (Aug 15, 2:53 PM)90% (Aug 27, 1:53 AM)30.01 "Hg (Aug 27, 1:53 AM)
Low61 °F (Aug 27, 12:53 AM)8% (Aug 17, 1:53 PM)29.75 "Hg (Aug 16, 5:53 PM)
Average75 °F54%29.87 "Hg
* Reported Aug 12 11:53 AM — Aug 27 11:53 AM, Glendale, Weather by CustomWeather, © 2016

Note: Actual official high and low records may vary slightly from our data, if they occured in-between our weather recording intervals... More about our weather records

Advertising

Glendale Weather History for the Previous 24 Hours

Scroll right to see more
 ConditionsComfort  
Time TempWeatherWind HumidityBarometerVisibility
11:53 AM
Sat, Aug 27
71 °FSunny.No wind59%29.96 "Hg6 mi
10:53 AM68 °FPartly sunny.7 mph68%29.98 "Hg7 mi
9:53 AM66 °FOvercast.No wind70%29.98 "Hg5 mi
8:53 AM65 °FOvercast.5 mph73%29.97 "Hg5 mi
8:00 AM64 °FOvercast.3 mph75%29.99 "Hg5 mi
6:53 AM63 °FOvercast.No wind78%29.94 "Hg5 mi
5:53 AM63 °FOvercast.5 mph78%29.93 "Hg9 mi
4:53 AM62 °FOvercast.No wind80%29.92 "Hg10 mi
3:53 AM62 °FOvercast.No wind83%29.92 "Hg9 mi
2:53 AM62 °FOvercast.5 mph83%29.92 "Hg7 mi
1:53 AM61 °FPassing clouds.3 mph90%29.93 "Hg8 mi
12:53 AM61 °FClear.5 mph87%29.93 "Hg9 mi
11:53 PM
Fri, Aug 26
62 °FClear.6 mph83%29.93 "Hg10 mi
10:53 PM63 °FClear.7 mph81%29.93 "Hg10 mi
9:53 PM63 °FClear.6 mph81%29.93 "Hg10 mi
8:53 PM64 °FClear.6 mph78%29.92 "Hg10 mi
7:53 PM66 °FSunny.7 mph73%29.90 "Hg10 mi
6:53 PM69 °FSunny.8 mph66%29.88 "Hg10 mi
5:53 PM73 °FSunny.12 mph57%29.88 "Hg10 mi
4:53 PM76 °FSunny.12 mph52%29.87 "Hg10 mi
3:53 PM76 °FSunny.9 mph50%29.88 "Hg10 mi
2:53 PM77 °FSunny.12 mph48%29.89 "Hg10 mi
1:53 PM78 °FSunny.9 mph45%29.91 "Hg10 mi
Weather by CustomWeather, © 2016

See weather overviewHow to use our weather pages